Regional Weather Roundup
Issued by NWS

Home | Current Version | Previous Version | Graphics & Text | Print | Product List | Glossary On
Versions: 1 2 3 4 5 6 7 8 9 10 11 12 13 14 15 16 17 18 19 20 21 22 23 24 25 26 27 28 29 30 31 32 33 34 35 36 37 38 39 40 41 42 43 44 45 46 47 48 49 50
000
ASUS45 KTFX 240019
RWRMT
MONTANA HOURLY WEATHER ROUNDUP
NATIONAL WEATHER SERVICE GREAT FALLS MT
619 PM MDT TUE SEP 23 2014

NOTE: "FAIR" INDICATES FEW OR NO CLOUDS BELOW 12000 FEET WITH NO
SIGNIFICANT WEATHER AND/OR OBSTRUCTIONS TO VISIBILITY.

* THESE STATIONS ARE NOT UNDER NWS QUALITY CONTROL. THEY DO NOT
   REPORT WEATHER SUCH AS PRECIPITATION OR FOG.

MTZ001>007-043-240100-
WEST OF THE DIVIDE
CITY           SKY/WX    TMP DP  RH WIND       PRES   REMARKS
KALISPELL      MOCLDY    75  48  39 SE5       29.91F
MISSOULA       PTCLDY    79  46  31 NW6       29.93F
BUTTE          PTCLDY    73  43  34 SW10      30.09S
MULLAN PASS    MOCLDY    61  45  56 VRB5      30.08S
* ESSEX        N/A       69  46  44 S4         N/A
* LINCOLN      N/A       78  43  29 S5G12      N/A
* POLSON       N/A       74  50  43 W2         N/A
* RONAN APT    PTCLDY    79  50  36 N7         N/A
* SEELEY LAKE  N/A       76  41  29 W5         N/A
* THOMP F APT  PTCLDY    66  47  51 S7G16      N/A
$$

MTZ008-052>055-240100-
SOUTHWEST MONTANA
CITY           SKY/WX    TMP DP  RH WIND       PRES   REMARKS
BOZEMAN        LGT RAIN  70  52  53 S10       30.06R
DILLON         MOCLDY    72  48  43 N9        30.07F
W YELLOWSTONE  MOCLDY    64  48  56 SW12G17   30.23S
* THREE FORKS  PTCLDY    79  73  82 N/A        N/A
* BOULDER HILL N/A       62  43  50 N4G10      N/A
* MONIDA PASS  N/A       61  47  60 SE16       N/A
* RAYNOLDS PAS N/A       65  44  47 SE11G16    N/A
* WHITEHALL    N/A       78  48  35 SW9G19     N/A
* WISE RIVER   N/A       73  38  28 W10G17     N/A
$$

MTZ009>010-012-014-046-048-049-054-240100-
EAST SLOPES AND CENTRAL MONTANA
CITY           SKY/WX    TMP DP  RH WIND       PRES   REMARKS
CUT BANK       MOCLDY    70  50  49 SW8       29.97F
GREAT FALLS    MOCLDY    75  46  36 SW17      29.95S
HELENA         PTCLDY    70  54  57 W3        30.00F
MALMSTROM AFB  MOCLDY    73  52  48 SW9       29.96S
* CONRAD       MOCLDY    66  61  84 N/A        N/A
* EAST GLACIER N/A       68  45  44 W10        N/A
* MONARCH      N/A       69  40  35 W11G17     N/A
* PENDROY      N/A       65  55  70 NW6        N/A
* ROGERS PASS  N/A       68  42  39 E4G9       N/A
* SAINT MARY   N/A       71  45  39 SW6        N/A
* SWEET GRASS  N/A       74  43  33 W4         N/A
* WHITE SULPH  N/A       65  41  42 NW16G24    N/A
$$

MTZ011-013-016-021-035-040-045-047-050-051-240100-
NORTH CENTRAL MONTANA
CITY           SKY/WX    TMP DP  RH WIND       PRES   REMARKS
HAVRE          PTCLDY    79  46  31 NW8       29.89F
LEWISTOWN      CLEAR     79  48  34 CALM      30.00S
* FORT BENTON  PTCLDY    81  46  29 W3        29.91S
* CHESTER      N/A       79  42  27 W8G16      N/A
* DENTON       N/A       79  46  31 N9         N/A
* GEYSER       N/A       74  46  37 W7         N/A
* JUDITH GAP   N/A       75  48  39 N6         N/A
* LOMA         N/A       80  49  34 N6         N/A
$$

MTZ017>020-022>027-061-062-240100-
NORTHEAST MONTANA
CITY           SKY/WX    TMP DP  RH WIND       PRES   REMARKS
GLASGOW        CLEAR     81  54  39 W6        29.85R
GLENDIVE       CLEAR     75  52  45 NW8       29.89R
JORDAN         CLEAR     79  54  42 W6        29.90R
SIDNEY         PTCLDY   N/A N/A N/A W5        29.84R
WOLF POINT     CLEAR     81  55  41 W7        29.83S HI  81
* BEAVER HILL  N/A       80  47  31 NW9        N/A
* CIRCLE       N/A       81  52  37 W5         N/A
* LINDSAY DVD  N/A       78  49  36 W11G17     N/A
* NAVAJO       N/A       82  43  25 NW9        N/A
$$

MTZ028>042-056>058-240100-
SOUTHCENTRAL AND SOUTHEAST MONTANA
CITY           SKY/WX    TMP DP  RH WIND       PRES   REMARKS
BAKER          PTCLDY    81  52  37 NW9       29.91R
BILLINGS       PTCLDY    82  41  23 NE3       29.97S
LIVINGSTON     PTCLDY    75  45  34 SW15      30.03S
MILES CITY     CLEAR     84  46  26 N12       29.90R
* LAUREL APT   CLEAR     84  45  26 W14        N/A
* ROUNDUP APT  CLEAR     81  46  29 NE5        N/A
* ALZADA       N/A       79  49  35 NW8        N/A
* HYSHAM       N/A       81  46  29 VRB2       N/A
* LAME DEER    N/A       76  47  36 NW4G12     N/A
* REED POINT   N/A       81  46  29 W8G16      N/A
* ROSCOE HILL  N/A       74  38  27 E4         N/A
$$

REGIONAL REPORTS...DAKOTAS
CITY           SKY/WX    TMP DP  RH WIND       PRES   REMARKS
WILLISTON      CLEAR     82  54  38 S3        29.82S
DICKINSON      PTCLDY    73  59  62 SE9       29.85R
BEACH          N/A       77  55  47 NW7       29.89S
CROSBY         CLEAR     75  55  50 CALM      29.82R
TIOGA          CLEAR     77  55  47 S8        29.87S
WATFORD CITY   HAZE      79  55  44 CALM      29.82R
BISMARCK       CLOUDY    64  57  78 SE10      29.93S
GRAND FORKS    PTCLDY    70  50  49 S22G30    29.99R
FARGO          CLOUDY    64  52  65 SE15G21   30.03S
BUFFALO SD     PTCLDY    81  52  37 NW15      29.85R
RAPID CITY     CLEAR     79  54  42 E3        29.93R
$$

REGIONAL REPORTS...WYOMING/IDAHO/WASHINGTON
CITY           SKY/WX    TMP DP  RH WIND       PRES   REMARKS
GILLETTE       LGT RAIN  77  43  30 NW13      30.02S
SHERIDAN       CLEAR     77  48  36 N7        30.02R
CODY           PTCLDY    75  43  32 W5        30.08S
YELLOWSTONE LA CLEAR     61  45  56 VRB3      30.32S
SALMON         CLOUDY    72  57  59 CALM      29.98F
MULLAN PASS    MOCLDY    61  45  56 VRB5      30.08S
SAND POINT     CLOUDY    68  55  63 NE3       29.89S
SPOKANE        CLOUDY    73  52  48 S12       29.88R
$$

REGIONAL REPORTS...ALBERTA
CITY           SKY/WX    TMP DP  RH WIND       PRES   REMARKS
CALGARY        MOCLDY    68  50  53 SE12      29.89F
LETHBRIDGE     MOCLDY    73  50  44 E3        29.89F
MEDICINE HAT   FAIR      70  54  57 SW5       29.90S
EDMONTON       MOCLDY    68  48  49 S6        29.85F
WATERTON GATE  N/A       70  45  41 SW7        N/A
CARDSTON       N/A       70  50  49 SW6        N/A
$$

REGIONAL REPORTS...SASKATCHEWAN
CITY           SKY/WX    TMP DP  RH WIND       PRES   REMARKS
SWIFT CURRENT  CLEAR     75  46  36 W12       29.83S
MOOSE JAW      MOCLDY    79  55  44 W5        29.79S
REGINA         MOCLDY    77  54  45 NW6       29.78S
VAL MARIE      N/A       73  48  41 W10        N/A
ASSINIBOIA     N/A       77  46  33 NE6        N/A
CORONACH       N/A       77  45  32 NW7        N/A

$$



USA.gov is the U.S. government's official web portal to all federal, state and local government web resources and services.